Jefferson, NC

7:27 PM EDT on April 30, 2017 (GMT -0400)
Ashe County

Weather History for KGEV - December, 2007

Change the Weather History Date:

Saturday, December 1, 2007

  Actual Average Record
Temperature  
Mean Temperature 48 °F -  
Max Temperature 57 °F 48 °F 69 °F (2006)
Min Temperature 39 °F 28 °F 6 °F (1976)
Degree Days  
Heating Degree Days 17    
Moisture  
Dew Point 9 °F    
Average Humidity 21    
Maximum Humidity 34    
Minimum Humidity 13    
Precipitation  
Precipitation 0.00 in - - ()
Sea Level Pressure  
Sea Level Pressure 30.34 in    
Wind  
Wind Speed 7 mph (SSE)    
Max Wind Speed 18 mph    
Max Gust Speed 29 mph    
Visibility 10 miles    
Events      
Averages and records for this station are not official NWS values.
T = Trace of Precipitation, MM = Missing Value Source: NWS Daily Summary

Daily Weather History Graph

Daily Weather History Graph

Search for Another Location

Airport or City:

Trip Planner

Search our weather history database for the weather conditions in past years. The results will help you decide how hot, cold, wet, or windy it might be!

Date:

Astronomy

Dec. 01, 2007 Rise Set
Actual Time 7:18 AM EST 5:10 PM EST
Civil Twilight 6:50 AM EST 5:38 PM EST
Nautical Twilight 6:18 AM EST 6:10 PM EST
Astronomical Twilight 5:47 AM EST 6:41 PM EST
Moon No Moon Rise 12:54 PM EST (12/1)
Length of Visible Light 10h 48m
Length of Day
9h 51m
Waning Gibbous, 48% of the Moon is Illuminated
Dec 1
Waning Gibbous
Dec 9
New
Dec 17
First Quarter
Dec 23
Full
Dec 31
Last Quarter

Hourly Weather History & Observations

Time (EST) Temp. Windchill Dew Point Humidity Pressure Visibility Wind Dir Wind Speed Gust Speed Precip Events Conditions
12:02 AM 42.8 °F 37.0 °F 6.8 °F 23% 30.31 in 10.0 mi NW 10.4 mph 25.3 mph N/A   Clear
12:42 AM 42.8 °F 36.6 °F 5.0 °F 21% 30.31 in 10.0 mi NW 11.5 mph - N/A   Clear
1:02 AM 42.8 °F 37.5 °F 6.8 °F 23% 30.31 in 10.0 mi WNW 9.2 mph - N/A   Clear
1:22 AM 42.8 °F 37.0 °F 3.2 °F 19% 30.31 in 10.0 mi West 10.4 mph - N/A   Clear
1:42 AM 42.8 °F 37.5 °F 3.2 °F 19% 30.31 in 10.0 mi NW 9.2 mph - N/A   Clear
2:42 AM 42.8 °F 34.5 °F 1.4 °F 18% 30.29 in 10.0 mi NW 18.4 mph 28.8 mph N/A   Clear
3:02 AM 42.8 °F 36.2 °F 3.2 °F 19% 30.30 in 10.0 mi NW 12.7 mph 20.7 mph N/A   Clear
3:22 AM 42.8 °F 37.0 °F 5.0 °F 21% 30.30 in 10.0 mi NW 10.4 mph 24.2 mph N/A   Clear
3:42 AM 42.8 °F 40.1 °F 3.2 °F 19% 30.30 in 10.0 mi WSW 4.6 mph 16.1 mph N/A   Clear
4:04 AM 44.6 °F 40.2 °F 3.2 °F 18% 30.29 in 10.0 mi NW 8.1 mph - N/A   Clear
4:22 AM 42.8 °F 37.5 °F 3.2 °F 19% 30.30 in 10.0 mi NW 9.2 mph - N/A   Clear
4:44 AM 44.6 °F 38.8 °F 1.4 °F 17% 30.29 in 10.0 mi NNW 11.5 mph 23.0 mph N/A   Clear
5:06 AM 44.6 °F 40.7 °F 1.4 °F 17% 30.30 in 10.0 mi NW 6.9 mph - N/A   Clear
5:22 AM 42.8 °F 39.3 °F 3.2 °F 19% 30.31 in 10.0 mi ESE 5.8 mph 20.7 mph N/A   Clear
5:42 AM 39.2 °F 34.2 °F 5.0 °F 24% 30.32 in 10.0 mi West 6.9 mph 21.9 mph N/A   Clear
6:02 AM 39.2 °F 35.9 °F 6.8 °F 26% 30.32 in 10.0 mi SSE 4.6 mph - N/A   Clear
6:22 AM 39.2 °F - 5.0 °F 24% 30.32 in 10.0 mi Calm Calm - N/A   Clear
6:42 AM 41.0 °F - 3.2 °F 21% 30.34 in 10.0 mi Calm Calm - N/A   Clear
7:02 AM 42.8 °F 40.1 °F 3.2 °F 19% 30.35 in 10.0 mi West 4.6 mph - N/A   Clear
7:22 AM 42.8 °F - 1.4 °F 18% 30.35 in 10.0 mi Calm Calm - N/A   Clear
7:42 AM 42.8 °F - 1.4 °F 18% 30.36 in 10.0 mi Calm Calm - N/A   Clear
8:02 AM 42.8 °F - 1.4 °F 18% 30.36 in 10.0 mi Calm Calm - N/A   Clear
8:22 AM 42.8 °F - 6.8 °F 23% 30.37 in 10.0 mi Calm Calm - N/A   Clear
8:44 AM 46.4 °F - 3.2 °F 17% 30.37 in 10.0 mi Calm Calm - N/A   Clear
9:02 AM 48.2 °F - 3.2 °F 16% 30.38 in 10.0 mi Calm Calm - N/A   Clear
9:22 AM 48.2 °F - 8.6 °F 20% 30.39 in 10.0 mi Calm Calm - N/A   Clear
10:02 AM 53.6 °F - 3.2 °F 13% 30.41 in 10.0 mi Calm Calm - N/A   Clear
10:22 AM 53.6 °F - 8.6 °F 16% 30.41 in 10.0 mi Calm Calm - N/A   Clear
10:44 AM 53.6 °F - 6.8 °F 15% 30.41 in 10.0 mi ENE 3.5 mph - N/A   Clear
11:02 AM 53.6 °F - 6.8 °F 15% 30.40 in 10.0 mi ESE 3.5 mph - N/A   Clear
11:22 AM 53.6 °F - 6.8 °F 15% 30.39 in 10.0 mi NE 3.5 mph - N/A   Clear
11:44 AM 55.4 °F - 8.6 °F 15% 30.38 in 10.0 mi East 4.6 mph - N/A   Clear
12:02 PM 57.2 °F - 6.8 °F 13% 30.36 in 10.0 mi Calm Calm - N/A   Clear
12:22 PM 57.2 °F - 6.8 °F 13% 30.36 in 10.0 mi ESE 3.5 mph - N/A   Clear
12:44 PM 57.2 °F - 8.6 °F 14% 30.33 in 10.0 mi ESE 5.8 mph - N/A   Clear
1:02 PM 57.2 °F - 10.4 °F 16% 30.33 in 10.0 mi SSE 6.9 mph - N/A   Clear
1:22 PM 57.2 °F - 10.4 °F 16% 30.32 in 10.0 mi SE 5.8 mph - N/A   Clear
1:42 PM 55.4 °F - 10.4 °F 17% 30.31 in 10.0 mi SE 8.1 mph - N/A   Clear
2:02 PM 55.4 °F - 12.2 °F 18% 30.32 in 10.0 mi SE 5.8 mph - N/A   Clear
2:22 PM 55.4 °F - 10.4 °F 17% 30.31 in 10.0 mi SE 6.9 mph - N/A   Clear
2:44 PM 53.6 °F - 10.4 °F 18% 30.31 in 10.0 mi SE 6.9 mph - N/A   Clear
3:02 PM 53.6 °F - 10.4 °F 18% 30.31 in 10.0 mi SE 6.9 mph - N/A   Clear
3:22 PM 53.6 °F - 10.4 °F 18% 30.32 in 10.0 mi SE 8.1 mph - N/A   Clear
3:42 PM 53.6 °F - 12.2 °F 19% 30.31 in 10.0 mi SSE 9.2 mph - N/A   Clear
4:02 PM 53.6 °F - 14.0 °F 21% 30.32 in 10.0 mi SE 5.8 mph - N/A   Clear
4:22 PM 53.6 °F - 15.8 °F 22% 30.31 in 10.0 mi SE 4.6 mph - N/A   Clear
4:42 PM 50.0 °F - 14.0 °F 24% 30.32 in 10.0 mi SSE 5.8 mph - N/A   Clear
5:02 PM 50.0 °F - 15.8 °F 26% 30.32 in 10.0 mi SSE 6.9 mph - N/A   Clear
5:22 PM 48.2 °F - 15.8 °F 27% 30.33 in 10.0 mi SSE 5.8 mph - N/A   Clear
5:43 PM 46.4 °F 43.5 °F 15.8 °F 29% 30.34 in 10.0 mi SSE 5.8 mph - N/A   Clear
6:02 PM 46.4 °F 44.3 °F 17.6 °F 32% 30.34 in 10.0 mi SSE 4.6 mph - N/A   Clear
6:22 PM 46.4 °F - 17.6 °F 32% 30.34 in 10.0 mi Calm Calm - N/A   Clear
6:43 PM 46.4 °F 44.3 °F 17.6 °F 32% 30.35 in 10.0 mi SE 4.6 mph - N/A   Clear
7:04 PM 46.4 °F - 17.6 °F 32% 30.36 in 10.0 mi Calm Calm - N/A   Scattered Clouds
7:22 PM 44.6 °F 43.1 °F 17.6 °F 34% 30.37 in 10.0 mi SSE 3.5 mph - N/A   Mostly Cloudy
7:46 PM 44.6 °F 43.1 °F 17.6 °F 34% 30.37 in 10.0 mi SSE 3.5 mph - N/A   Scattered Clouds
8:04 PM 44.6 °F 42.2 °F 17.6 °F 34% 30.36 in 10.0 mi SSE 4.6 mph - N/A   Clear
8:24 PM 44.6 °F 41.4 °F 17.6 °F 34% 30.36 in 10.0 mi SSE 5.8 mph - N/A   Clear
8:42 PM 44.6 °F 40.7 °F 15.8 °F 31% 30.36 in 10.0 mi South 6.9 mph - N/A   Clear
9:02 PM 44.6 °F 41.4 °F 14.0 °F 29% 30.36 in 10.0 mi SSE 5.8 mph - N/A   Clear
9:22 PM 44.6 °F 41.4 °F 12.2 °F 27% 30.38 in 10.0 mi SSE 5.8 mph - N/A   Clear
9:42 PM 42.8 °F 39.3 °F 12.2 °F 29% 30.38 in 10.0 mi South 5.8 mph - N/A   Clear
10:02 PM 42.8 °F 39.3 °F 14.0 °F 31% 30.38 in 10.0 mi South 5.8 mph - N/A   Clear
10:22 PM 42.8 °F - 12.2 °F 29% 30.38 in 10.0 mi Calm Calm - N/A   Clear
10:42 PM 41.0 °F 39.0 °F 12.2 °F 31% 30.37 in 10.0 mi SSE 3.5 mph - N/A   Clear
11:02 PM 41.0 °F 38.0 °F 12.2 °F 31% 30.37 in 10.0 mi South 4.6 mph - N/A   Clear
11:22 PM 41.0 °F 39.0 °F 10.4 °F 29% 30.37 in 10.0 mi SSE 3.5 mph - N/A   Clear
11:42 PM 39.2 °F 37.0 °F 12.2 °F 33% 30.37 in 10.0 mi South 3.5 mph - N/A   Clear